Terre Haute, IN

3:29 AM EDT on June 25, 2017 (GMT -0400)
Terre Haute International-Hulman

Weather History for KHUF - May, 2013

Change the Weather History Date:

Wednesday, May 15, 2013

  Actual Average Record
Temperature  
Mean Temperature 77 °F 63 °F  
Max Temperature 87 °F 74 °F 90 °F (2001)
Min Temperature 66 °F 52 °F 33 °F (1973)
Degree Days  
Heating Degree Days 0 5  
Month to date heating degree days 67 88  
Since 1 July heating degree days 5250 5308  
Cooling Degree Days 12 2  
Month to date cooling degree days 20 20  
Year to date cooling degree days 27 35  
Growing Degree Days 26 (Base 50)    
Moisture  
Dew Point 58 °F    
Average Humidity 52    
Maximum Humidity 63    
Minimum Humidity 40    
Precipitation  
Precipitation 0.00 in 0.23 in 2.12 in (1981)
Month to date precipitation 2.27 3.42  
Year to date precipitation 18.93 15.23  
Sea Level Pressure  
Sea Level Pressure 29.86 in    
Wind  
Wind Speed 12 mph (SW)    
Max Wind Speed 20 mph    
Max Gust Speed 26 mph    
Visibility 10 miles    
Events      
T = Trace of Precipitation, MM = Missing Value Source: NWS Daily Summary

Daily Weather History Graph

Daily Weather History Graph

Search for Another Location

Airport or City:

Trip Planner

Search our weather history database for the weather conditions in past years. The results will help you decide how hot, cold, wet, or windy it might be!

Date:

Astronomy

May. 15, 2013 Rise Set
Actual Time 6:35 AM EDT 8:56 PM EDT
Civil Twilight 6:04 AM EDT 9:27 PM EDT
Nautical Twilight 5:27 AM EDT 10:04 PM EDT
Astronomical Twilight 4:46 AM EDT 10:46 PM EDT
Moon 11:10 AM EDT (5/15) 12:42 AM EDT (5/15)
Length of Visible Light 15h 22m
Length of Day
14h 21m
Waxing Crescent, 26% of the Moon is Illuminated
May 15
Waxing Crescent
May 18
First Quarter
May 25
Full
May 31
Last Quarter
Jun 8
New

Hourly Weather History & Observations

Time (EDT) Temp. Heat Index Dew Point Humidity Pressure Visibility Wind Dir Wind Speed Gust Speed Precip Events Conditions
12:53 AM 71.1 °F - 57.9 °F 63% 29.83 in 10.0 mi SSW 9.2 mph - N/A   Clear
1:53 AM 71.1 °F - 57.9 °F 63% 29.83 in 10.0 mi SW 10.4 mph - N/A   Clear
2:53 AM 71.1 °F - 57.0 °F 61% 29.83 in 10.0 mi SW 8.1 mph - N/A   Clear
3:53 AM 70.0 °F - 55.9 °F 61% 29.83 in 10.0 mi SW 8.1 mph - N/A   Clear
4:53 AM 69.1 °F - 55.0 °F 61% 29.84 in 10.0 mi SW 9.2 mph - N/A   Clear
5:53 AM 68.0 °F - 55.0 °F 63% 29.87 in 10.0 mi WSW 8.1 mph - N/A   Clear
6:53 AM 66.0 °F - 54.0 °F 65% 29.88 in 10.0 mi SW 8.1 mph - N/A   Clear
7:53 AM 69.1 °F - 54.0 °F 58% 29.89 in 10.0 mi SW 12.7 mph - N/A   Clear
8:53 AM 72.0 °F - 54.0 °F 53% 29.90 in 10.0 mi WSW 13.8 mph 21.9 mph N/A   Clear
9:53 AM 77.0 °F - 54.0 °F 45% 29.91 in 10.0 mi West 13.8 mph 21.9 mph N/A   Clear
10:53 AM 80.1 °F 80.2 °F 55.9 °F 43% 29.90 in 10.0 mi WSW 17.3 mph 25.3 mph N/A   Clear
11:53 AM 81.0 °F 81.0 °F 57.0 °F 44% 29.91 in 10.0 mi WSW 16.1 mph 25.3 mph N/A   Clear
12:53 PM 82.9 °F 82.6 °F 57.9 °F 42% 29.88 in 10.0 mi WSW 15.0 mph 20.7 mph N/A   Clear
1:53 PM 84.9 °F 84.2 °F 57.9 °F 40% 29.86 in 10.0 mi SW 13.8 mph 23.0 mph N/A   Clear
2:53 PM 86.0 °F 85.7 °F 60.1 °F 41% 29.86 in 10.0 mi WSW 13.8 mph - N/A   Clear
3:53 PM 86.0 °F 85.7 °F 60.1 °F 41% 29.84 in 10.0 mi SW 16.1 mph 21.9 mph N/A   Clear
4:53 PM 86.0 °F 85.7 °F 60.1 °F 41% 29.83 in 10.0 mi WSW 13.8 mph 24.2 mph N/A   Clear
5:53 PM 86.0 °F 85.7 °F 60.1 °F 41% 29.82 in 10.0 mi SW 13.8 mph 21.9 mph N/A   Clear
6:53 PM 84.0 °F 84.0 °F 60.1 °F 44% 29.83 in 10.0 mi SW 16.1 mph 21.9 mph N/A   Partly Cloudy
7:53 PM 82.0 °F 82.7 °F 61.0 °F 49% 29.82 in 10.0 mi SW 11.5 mph - N/A   Clear
8:53 PM 80.1 °F 80.9 °F 60.1 °F 50% 29.83 in 10.0 mi SW 11.5 mph - N/A   Clear
9:53 PM 78.1 °F - 59.0 °F 52% 29.83 in 10.0 mi SSW 11.5 mph - N/A   Clear
10:53 PM 75.9 °F - 59.0 °F 56% 29.85 in 10.0 mi SSW 10.4 mph - N/A   Clear
11:53 PM 75.0 °F - 60.1 °F 60% 29.85 in 10.0 mi SW 10.4 mph - N/A   Clear